| time (UTC) | temp F | wind direction | speed MPH | gust MPH | rain 1hr in | rain 24hr in | rain mn in | humidity % | barometer mb |
| 20260503225133 | 79 | 112 | 6.0 | 15.0 | 0.00 | 0.13 | 0.13 | 74 | 1017.3 |
| 20260503225127 | 79 | 44 | 6.0 | 16.0 | 0.00 | 0.13 | 0.13 | 74 | 1017.6 |
| 20260503224400 | 79 | 71 | 11.0 | 15.0 | 0.00 | 0.13 | 0.13 | 73 | 1017.7 |
| 20260503223858 | 79 | 47 | 1.0 | 15.0 | 0.00 | 0.13 | 0.13 | 74 | 1017.6 |
| 20260503223128 | 79 | 104 | 8.0 | 15.0 | 0.00 | 0.13 | 0.13 | 75 | 1017.8 |
| 20260503222628 | 78 | 79 | 9.0 | 15.0 | 0.00 | 0.13 | 0.13 | 75 | 1017.7 |
| 20260503222128 | 78 | 118 | 10.0 | 15.0 | 0.00 | 0.13 | 0.13 | 74 | 1017.7 |
| 20260503221627 | 78 | 57 | 4.0 | 15.0 | 0.00 | 0.13 | 0.13 | 75 | 1017.7 |
| 20260503221127 | 79 | 91 | 9.0 | 13.0 | 0.00 | 0.13 | 0.13 | 74 | 1018.0 |
| 20260503220627 | 79 | 88 | 6.0 | 16.0 | 0.00 | 0.13 | 0.13 | 74 | 1018.0 |
| 20260503220359 | 78 | 96 | 6.0 | 16.0 | 0.00 | 0.13 | 0.13 | 75 | 1018.2 |
| 20260503215630 | 78 | 91 | 11.0 | 15.0 | 0.00 | 0.13 | 0.13 | 77 | 1018.1 |
| 20260503215127 | 78 | 100 | 9.0 | 15.0 | 0.00 | 0.13 | 0.13 | 76 | 1018.3 |
| 20260503214629 | 79 | 44 | 5.0 | 15.0 | 0.00 | 0.13 | 0.13 | 76 | 1018.2 |
| 20260503214127 | 78 | 93 | 6.0 | 19.0 | 0.00 | 0.13 | 0.13 | 77 | 1018.4 |
| 20260503213627 | 78 | 83 | 7.0 | 19.0 | 0.00 | 0.13 | 0.13 | 76 | 1018.4 |
| 20260503213128 | 78 | 68 | 5.0 | 15.0 | 0.00 | 0.13 | 0.13 | 77 | 1018.6 |
| 20260503212627 | 78 | 84 | 8.0 | 15.0 | 0.00 | 0.13 | 0.13 | 76 | 1018.5 |
| 20260503212128 | 78 | 111 | 9.0 | 15.0 | 0.00 | 0.13 | 0.13 | 78 | 1018.4 |
| 20260503211628 | 78 | 96 | 11.0 | 15.0 | 0.00 | 0.13 | 0.13 | 77 | 1018.3 |
| 20260503211128 | 78 | 69 | 6.0 | 14.0 | 0.07 | 0.13 | 0.13 | 79 | 1018.6 |
| 20260503210629 | 78 | 105 | 9.0 | 14.0 | 0.13 | 0.13 | 0.13 | 80 | 1018.5 |
| 20260503210128 | 78 | 125 | 10.0 | 16.0 | 0.13 | 0.13 | 0.13 | 82 | 1018.3 |
| 20260503205628 | 77 | 76 | 7.0 | 16.0 | 0.13 | 0.13 | 0.13 | 83 | 1018.5 |
| 20260503205130 | 76 | 19 | 11.0 | 14.0 | 0.13 | 0.13 | 0.13 | 86 | 1018.4 |
| 20260503204628 | 74 | 132 | 0.0 | 9.0 | 0.13 | 0.13 | 0.13 | 88 | 1018.5 |
| 20260503204128 | 74 | 162 | 1.0 | 9.0 | 0.13 | 0.13 | 0.13 | 89 | 1018.7 |
| 20260503203628 | 74 | 110 | 5.0 | 8.0 | 0.13 | 0.13 | 0.13 | 89 | 1018.6 |
| 20260503203127 | 73 | 180 | 0.0 | 1.0 | 0.13 | 0.13 | 0.13 | 91 | 1018.8 |
| 20260503202627 | 72 | 175 | 0.0 | 0.0 | 0.13 | 0.13 | 0.13 | 90 | 1018.5 |
| 20260503202127 | 71 | 220 | 0.0 | 8.0 | 0.13 | 0.13 | 0.13 | 89 | 1018.7 |
| 20260503201628 | 71 | 164 | 0.0 | 14.0 | 0.13 | 0.13 | 0.13 | 89 | 1018.6 |
| 20260503201129 | 71 | 168 | 5.0 | 14.0 | 0.06 | 0.06 | 0.08 | 88 | 1018.8 |
| 20260503200628 | 72 | 171 | 6.0 | 11.0 | 0.01 | 0.01 | 0.01 | 88 | 1018.8 |
| 20260503200127 | 73 | 171 | 6.0 | 13.0 | 0.00 | 0.00 | 0.00 | 87 | 1018.6 |
| 20260503195628 | 73 | 189 | 4.0 | 13.0 | 0.00 | 0.00 | 0.00 | 86 | 1018.5 |
| 20260503195130 | 74 | 186 | 5.0 | 16.0 | 0.00 | 0.00 | 0.00 | 84 | 1018.6 |
| 20260503194858 | 74 | 70 | 10.0 | 15.0 | 0.00 | 0.00 | 0.00 | 79 | 1018.8 |
| 20260503194128 | 75 | 185 | 0.0 | 15.0 | 0.00 | 0.00 | 0.00 | 79 | 1018.5 |
| 20260503193622 | 74 | 136 | 4.0 | 15.0 | 0.00 | 0.00 | 0.00 | 80 | 1018.6 |
| 20260503193111 | 74 | 138 | 10.0 | 17.0 | 0.00 | 0.00 | 0.00 | 82 | 1018.8 |
| 20260503192605 | 74 | 114 | 9.0 | 17.0 | 0.00 | 0.00 | 0.00 | 80 | 1018.8 |
| 20260503192112 | 75 | 100 | 12.0 | 17.0 | 0.00 | 0.00 | 0.00 | 78 | 1018.7 |
| 20260503192106 | 75 | 112 | 8.0 | 17.0 | 0.00 | 0.00 | 0.00 | 80 | 1018.6 |
| 20260503191105 | 75 | 94 | 6.0 | 17.0 | 0.00 | 0.00 | 0.00 | 80 | 1018.6 |
| 20260503190605 | 74 | 68 | 12.0 | 19.0 | 0.00 | 0.00 | 0.00 | 80 | 1018.6 |
| 20260503190556 | 75 | 11 | 8.0 | 20.0 | 0.00 | 0.00 | 0.00 | 81 | 1018.5 |
| 20260503185555 | 76 | 68 | 9.0 | 20.0 | 0.00 | 0.00 | 0.00 | 81 | 1018.5 |
| 20260503185041 | 76 | 92 | 10.0 | 15.0 | 0.00 | 0.00 | 0.00 | 81 | 1018.5 |
| 20260503184529 | 76 | 145 | 1.0 | 14.0 | 0.00 | 0.00 | 0.00 | 81 | 1018.7 |
| 20260503184029 | 76 | 93 | 3.0 | 14.0 | 0.00 | 0.00 | 0.00 | 80 | 1018.6 |
| 20260503183530 | 76 | 113 | 5.0 | 16.0 | 0.00 | 0.00 | 0.00 | 80 | 1018.4 |
| 20260503183030 | 76 | 115 | 5.0 | 16.0 | 0.00 | 0.00 | 0.00 | 81 | 1018.4 |
| 20260503182536 | 76 | 51 | 8.0 | 20.0 | 0.00 | 0.00 | 0.00 | 79 | 1018.3 |
| 20260503182530 | 76 | 83 | 9.0 | 20.0 | 0.00 | 0.00 | 0.00 | 80 | 1018.5 |
| 20260503181529 | 76 | 78 | 9.0 | 17.0 | 0.00 | 0.00 | 0.00 | 78 | 1018.4 |
| 20260503181250 | 77 | 85 | 10.0 | 16.0 | 0.00 | 0.00 | 0.00 | 77 | 1018.2 |
| 20260503180748 | 77 | 55 | 6.0 | 16.0 | 0.00 | 0.00 | 0.00 | 77 | 1018.3 |
| 20260503180024 | 76 | 73 | 4.0 | 16.0 | 0.00 | 0.00 | 0.00 | 79 | 1018.3 |
| 20260503180018 | 77 | 47 | 6.0 | 14.0 | 0.00 | 0.00 | 0.00 | 78 | 1018.3 |
| 20260503175018 | 76 | 83 | 8.0 | 16.0 | 0.00 | 0.00 | 0.00 | 80 | 1018.1 |
| 20260503174519 | 75 | 81 | 8.0 | 15.0 | 0.00 | 0.00 | 0.00 | 79 | 1018.1 |
| 20260503174017 | 75 | 108 | 5.0 | 15.0 | 0.00 | 0.00 | 0.00 | 80 | 1017.9 |
| 20260503173505 | 75 | 82 | 6.0 | 14.0 | 0.00 | 0.00 | 0.00 | 80 | 1018.1 |
| 20260503173005 | 75 | 39 | 6.0 | 14.0 | 0.00 | 0.00 | 0.00 | 80 | 1017.9 |
| 20260503172506 | 75 | 71 | 6.0 | 13.0 | 0.00 | 0.00 | 0.00 | 80 | 1017.8 |
| 20260503172006 | 75 | 82 | 6.0 | 14.0 | 0.00 | 0.00 | 0.00 | 80 | 1017.8 |
| 20260503171506 | 75 | 110 | 5.0 | 14.0 | 0.00 | 0.00 | 0.00 | 80 | 1017.7 |
| 20260503171006 | 75 | 47 | 8.0 | 10.0 | 0.00 | 0.00 | 0.00 | 80 | 1017.7 |
| 20260503170506 | 74 | 117 | 4.0 | 13.0 | 0.00 | 0.00 | 0.00 | 80 | 1017.6 |
| 20260503150955 | 73 | 109 | 3.0 | 10.0 | 0.00 | 0.00 | 0.00 | 81 | 1016.9 |
| 20260503150454 | 73 | 142 | 6.0 | 10.0 | 0.00 | 0.00 | 0.00 | 82 | 1017.0 |
| 20260503140212 | 73 | 102 | 5.0 | 14.0 | 0.00 | 0.00 | 0.00 | 83 | 1017.2 |
| 20260503131213 | 73 | 72 | 6.0 | 14.0 | 0.00 | 0.00 | 0.00 | 83 | 1017.0 |
| 20260503130713 | 73 | 70 | 1.0 | 10.0 | 0.00 | 0.00 | 0.00 | 83 | 1016.9 |
| 20260503110442 | 74 | 89 | 7.0 | 14.0 | 0.00 | 0.00 | 0.00 | 81 | 1017.9 |
| 20260503090441 | 74 | 103 | 8.0 | 14.0 | 0.00 | 0.00 | 0.00 | 79 | 1017.8 |
| 20260503090213 | 74 | 100 | 4.0 | 14.0 | 0.00 | 0.00 | 0.00 | 80 | 1018.1 |
| 20260503081447 | 74 | 86 | 4.0 | 14.0 | 0.00 | 0.00 | 0.00 | 78 | 1017.6 |
| 20260503081441 | 74 | 118 | 5.0 | 14.0 | 0.00 | 0.00 | 0.00 | 78 | 1017.8 |
| 20260503080442 | 75 | 96 | 10.0 | 15.0 | 0.00 | 0.00 | 0.00 | 78 | 1017.8 |
| 20260503072942 | 75 | 99 | 8.0 | 14.0 | 0.00 | 0.00 | 0.00 | 79 | 1017.5 |
| 20260503072443 | 75 | 105 | 3.0 | 14.0 | 0.00 | 0.00 | 0.00 | 78 | 1017.3 |
| 20260503071941 | 75 | 103 | 9.0 | 16.0 | 0.00 | 0.00 | 0.00 | 79 | 1017.3 |
| 20260503071442 | 75 | 26 | 4.0 | 16.0 | 0.00 | 0.00 | 0.00 | 79 | 1017.3 |
| 20260503070941 | 75 | 85 | 9.0 | 16.0 | 0.00 | 0.00 | 0.00 | 79 | 1017.1 |
| 20260503070441 | 74 | 46 | 7.0 | 16.0 | 0.00 | 0.00 | 0.00 | 78 | 1017.3 |
| 20260503054941 | 75 | 120 | 10.0 | 15.0 | 0.00 | 0.00 | 0.00 | 78 | 1016.3 |
| 20260503054447 | 75 | 77 | 6.0 | 16.0 | 0.00 | 0.00 | 0.00 | 78 | 1016.1 |
| 20260503054441 | 75 | 48 | 6.0 | 16.0 | 0.00 | 0.00 | 0.00 | 78 | 1016.4 |
| 20260503053443 | 75 | 112 | 8.0 | 16.0 | 0.00 | 0.00 | 0.00 | 77 | 1016.1 |
| 20260503052941 | 75 | 54 | 7.0 | 16.0 | 0.00 | 0.00 | 0.00 | 77 | 1015.9 |
| 20260503052712 | 75 | 76 | 8.0 | 13.0 | 0.00 | 0.00 | 0.00 | 77 | 1015.9 |
| 20260503051941 | 75 | 115 | 6.0 | 13.0 | 0.00 | 0.00 | 0.00 | 78 | 1015.8 |
| 20260503051441 | 75 | 98 | 10.0 | 15.0 | 0.00 | 0.00 | 0.00 | 77 | 1016.0 |
| 20260503050943 | 75 | 84 | 7.0 | 15.0 | 0.00 | 0.00 | 0.00 | 77 | 1015.8 |
| 20260503050441 | 75 | 104 | 9.0 | 16.0 | 0.00 | 0.00 | 0.00 | 77 | 1015.7 |
| 20260503045947 | 75 | 138 | 8.0 | 16.0 | 0.00 | 0.00 | 0.00 | 79 | 1015.6 |
| 20260503045941 | 75 | 73 | 0.0 | 16.0 | 0.00 | 0.00 | 0.00 | 79 | 1015.7 |
| 20260503044942 | 75 | 94 | 6.0 | 16.0 | 0.00 | 0.00 | 0.00 | 79 | 1015.5 |
| 20260503044443 | 75 | 81 | 7.0 | 24.0 | 0.00 | 0.00 | 0.00 | 80 | 1015.5 |
| 20260503043941 | 75 | 40 | 7.0 | 24.0 | 0.00 | 0.00 | 0.00 | 80 | 1015.2 |
| 20260503043442 | 75 | 103 | 9.0 | 16.0 | 0.00 | 0.00 | 0.00 | 79 | 1015.4 |
| 20260503042942 | 75 | 98 | 13.0 | 15.0 | 0.00 | 0.00 | 0.00 | 78 | 1015.1 |
| 20260503042445 | 75 | 70 | 7.0 | 15.0 | 0.00 | 0.00 | 0.00 | 78 | 1015.2 |
| 20260503041941 | 75 | 112 | 7.0 | 14.0 | 0.00 | 0.00 | 0.00 | 77 | 1015.0 |
| 20260503041442 | 75 | 102 | 4.0 | 15.0 | 0.00 | 0.00 | 0.00 | 77 | 1015.1 |
| 20260503040941 | 75 | 128 | 5.0 | 15.0 | 0.00 | 0.00 | 0.00 | 77 | 1015.1 |
| 20260503040440 | 75 | 104 | 10.0 | 15.0 | 0.00 | 0.00 | 0.00 | 77 | 1015.2 |
| 20260503035940 | 76 | 122 | 7.0 | 15.0 | 0.00 | 0.00 | 0.00 | 75 | 1015.1 |
| 20260503035442 | 76 | 105 | 5.0 | 15.0 | 0.00 | 0.00 | 0.00 | 76 | 1015.2 |
| 20260503034940 | 76 | 103 | 6.0 | 15.0 | 0.00 | 0.00 | 0.00 | 76 | 1015.0 |
| 20260503034441 | 76 | 84 | 9.0 | 15.0 | 0.00 | 0.00 | 0.00 | 74 | 1015.0 |
| 20260503033941 | 76 | 86 | 6.0 | 14.0 | 0.00 | 0.00 | 0.00 | 75 | 1014.8 |
| 20260503033441 | 76 | 72 | 10.0 | 14.0 | 0.00 | 0.00 | 0.00 | 75 | 1014.9 |
| 20260503032941 | 76 | 120 | 4.0 | 14.0 | 0.00 | 0.00 | 0.00 | 75 | 1015.0 |
| 20260503032442 | 76 | 108 | 8.0 | 14.0 | 0.00 | 0.00 | 0.00 | 75 | 1015.0 |
| 20260503032211 | 76 | 87 | 6.0 | 14.0 | 0.00 | 0.00 | 0.00 | 75 | 1014.8 |
| 20260503031440 | 76 | 88 | 6.0 | 14.0 | 0.00 | 0.00 | 0.00 | 76 | 1014.7 |
| 20260503030940 | 77 | 76 | 10.0 | 14.0 | 0.00 | 0.00 | 0.00 | 75 | 1015.0 |
| 20260503030712 | 77 | 70 | 3.0 | 16.0 | 0.00 | 0.00 | 0.00 | 74 | 1014.8 |
| 20260503030212 | 77 | 110 | 2.0 | 16.0 | 0.00 | 0.00 | 0.00 | 73 | 1015.0 |
| 20260503025712 | 77 | 117 | 6.0 | 15.0 | 0.00 | 0.00 | 0.00 | 73 | 1014.9 |
| 20260503024941 | 77 | 88 | 11.0 | 15.0 | 0.00 | 0.00 | 0.00 | 72 | 1015.0 |
| 20260503024442 | 78 | 69 | 9.0 | 15.0 | 0.00 | 0.00 | 0.00 | 72 | 1015.1 |
| 20260503023940 | 78 | 128 | 9.0 | 15.0 | 0.00 | 0.00 | 0.00 | 72 | 1015.0 |
| 20260503023441 | 77 | 102 | 3.0 | 15.0 | 0.00 | 0.00 | 0.00 | 73 | 1014.9 |
| 20260503022942 | 78 | 99 | 7.0 | 15.0 | 0.00 | 0.00 | 0.00 | 73 | 1014.9 |
| 20260503022440 | 78 | 90 | 8.0 | 14.0 | 0.00 | 0.00 | 0.00 | 74 | 1014.7 |
| 20260503021941 | 77 | 91 | 8.0 | 14.0 | 0.00 | 0.00 | 0.00 | 73 | 1014.9 |
| 20260503021442 | 78 | 98 | 5.0 | 15.0 | 0.00 | 0.00 | 0.00 | 73 | 1014.5 |
| 20260503020941 | 77 | 132 | 4.0 | 15.0 | 0.00 | 0.00 | 0.00 | 74 | 1014.9 |
| 20260503020441 | 77 | 120 | 4.0 | 17.0 | 0.00 | 0.00 | 0.00 | 74 | 1014.8 |
| 20260503020211 | 77 | 96 | 5.0 | 17.0 | 0.00 | 0.00 | 0.00 | 74 | 1014.5 |
| 20260503015711 | 77 | 96 | 6.0 | 17.0 | 0.00 | 0.00 | 0.00 | 74 | 1014.7 |
| 20260503014941 | 77 | 76 | 8.0 | 17.0 | 0.00 | 0.00 | 0.00 | 74 | 1014.5 |
| 20260503014711 | 77 | 78 | 5.0 | 17.0 | 0.00 | 0.00 | 0.00 | 75 | 1014.7 |
| 20260503013929 | 77 | 91 | 4.0 | 20.0 | 0.00 | 0.00 | 0.00 | 74 | 1014.7 |
| 20260503013428 | 78 | 72 | 7.0 | 20.0 | 0.00 | 0.00 | 0.00 | 72 | 1014.3 |
| 20260503012929 | 78 | 93 | 9.0 | 20.0 | 0.00 | 0.00 | 0.00 | 71 | 1014.5 |
| 20260503012428 | 78 | 78 | 8.0 | 20.0 | 0.00 | 0.00 | 0.00 | 74 | 1014.4 |
| 20260503011928 | 78 | 104 | 9.0 | 20.0 | 0.00 | 0.00 | 0.00 | 75 | 1014.5 |
| 20260503011428 | 77 | 110 | 4.0 | 20.0 | 0.00 | 0.00 | 0.00 | 75 | 1014.5 |
| 20260503010928 | 77 | 127 | 11.0 | 21.0 | 0.00 | 0.00 | 0.00 | 74 | 1014.6 |
| 20260503010647 | 78 | 69 | 11.0 | 21.0 | 0.00 | 0.00 | 0.00 | 73 | 1014.6 |
| 20260503010148 | 78 | 76 | 8.0 | 19.0 | 0.00 | 0.00 | 0.00 | 72 | 1014.8 |
| 20260503005648 | 78 | 90 | 8.0 | 19.0 | 0.00 | 0.00 | 0.00 | 74 | 1014.6 |
| 20260503004917 | 78 | 107 | 6.0 | 17.0 | 0.00 | 0.00 | 0.00 | 74 | 1015.0 |
| 20260503004417 | 78 | 68 | 10.0 | 17.0 | 0.00 | 0.00 | 0.00 | 73 | 1015.0 |
| 20260503003917 | 78 | 118 | 8.0 | 16.0 | 0.00 | 0.00 | 0.00 | 73 | 1014.8 |
| 20260503003417 | 79 | 136 | 8.0 | 16.0 | 0.00 | 0.00 | 0.00 | 71 | 1014.9 |
| 20260503002906 | 79 | 81 | 5.0 | 19.0 | 0.00 | 0.00 | 0.00 | 71 | 1014.7 |
| 20260503002637 | 79 | 54 | 6.0 | 19.0 | 0.00 | 0.00 | 0.00 | 71 | 1015.1 |
| 20260503001906 | 79 | 75 | 10.0 | 20.0 | 0.00 | 0.00 | 0.00 | 71 | 1015.2 |
| 20260503001405 | 79 | 111 | 9.0 | 20.0 | 0.00 | 0.00 | 0.00 | 73 | 1015.2 |
| 20260503001136 | 79 | 72 | 6.0 | 20.0 | 0.00 | 0.00 | 0.00 | 71 | 1015.1 |
| 20260503000407 | 79 | 48 | 10.0 | 17.0 | 0.00 | 0.00 | 0.00 | 72 | 1015.2 |
| 20260502235905 | 80 | 109 | 6.0 | 17.0 | 0.00 | 0.00 | 0.00 | 73 | 1015.3 |
| 20260502235353 | 79 | 85 | 9.0 | 17.0 | 0.00 | 0.00 | 0.00 | 71 | 1015.4 |
| 20260502234852 | 79 | 120 | 7.0 | 16.0 | 0.00 | 0.00 | 0.00 | 71 | 1015.4 |
| 20260502234624 | 79 | 68 | 11.0 | 16.0 | 0.00 | 0.00 | 0.00 | 70 | 1015.8 |
| 20260502233854 | 79 | 70 | 9.0 | 17.0 | 0.00 | 0.00 | 0.00 | 71 | 1015.8 |
| 20260502233353 | 79 | 66 | 10.0 | 16.0 | 0.00 | 0.00 | 0.00 | 70 | 1016.0 |
| 20260502232854 | 79 | 90 | 4.0 | 16.0 | 0.00 | 0.00 | 0.00 | 71 | 1016.1 |
| 20260502232352 | 80 | 87 | 4.0 | 16.0 | 0.00 | 0.00 | 0.00 | 71 | 1015.9 |
| 20260502231852 | 80 | 101 | 7.0 | 17.0 | 0.00 | 0.00 | 0.00 | 72 | 1016.2 |
| 20260502231353 | 79 | 60 | 11.0 | 19.0 | 0.00 | 0.00 | 0.00 | 71 | 1016.2 |
| 20260502230855 | 80 | 90 | 8.0 | 19.0 | 0.00 | 0.00 | 0.00 | 69 | 1016.1 |
| 20260502230353 | 80 | 88 | 9.0 | 17.0 | 0.00 | 0.00 | 0.00 | 68 | 1016.5 |
| 20260502225852 | 80 | 113 | 10.0 | 16.0 | 0.00 | 0.00 | 0.00 | 69 | 1016.5 |